Terminal Aerodrome Forecast
Issued by NWS Spokane, WA

Home | Current Version | Previous Version | Text Only | Print | Product List | Glossary On
Versions: 1 2 3 4 5 6 7 8 9 10 11 12 13 14 15
000
FTUS46 KOTX 161920 AAA
TAFGEG
TAF AMD
KGEG 161920Z 1619/1718 23009KT P6SM -RA BKN016 OVC022
     FM162100 23010KT P6SM -SHRA BKN030 OVC040
     FM170100 19008KT P6SM BKN045 OVC060
     FM170700 17007KT P6SM SCT050 OVC090
     FM171400 17007KT P6SM -RA SCT030 BKN040 OVC050=

USA.gov is the U.S. government's official web portal to all federal, state and local government web resources and services.